[[{"header":{"parameterUnit":"m.s-1","parameterCategory":1,"la1":30.2991,"la2":30.254,"lo1":-89.0895,"lo2":-89.0444,"dy":0.0017,"dx":0.0017,"nx":28,"ny":28,"refTime":"2024-07-09T03:00:00:Z","depth":0,"parameterNumber":2,"parameterNumberName":"U-component_of_WINDS"},"data":[0,0,0,0,0,0,0,0,0,0,0,0,0,0,0,0,0,0,0,0,0,0,0,0,0,0,0,0,0,0,0,0,0,0,0,0,0,0,0,0,0,0,0,0,0,0,0,0,0,0,0,0,0,0,0,0,0,0,4.8098,4.8099,0,4.8142,4.8142,4.8143,4.8079,4.8077,4.8074,4.8072,4.8115,4.8118,4.8121,0,0,0,0,0,0,0,0,0,0,0,0,0,4.7957,4.796,4.8098,4.8099,4.8099,4.8142,4.8142,4.8143,4.8079,4.8076,4.8074,4.8071,4.8113,4.8117,4.8121,0,0,0,0,0,0,0,0,0,0,0,0,0,4.8011,4.7961,4.8098,4.8073,4.8071,4.8142,4.8142,4.8143,4.808,4.8076,4.8073,4.807,4.8112,4.8117,4.8122,4.8218,0,0,4.8136,4.8138,0,0,0,0,0,0,0,0,4.8008,4.8016,4.8076,4.8075,4.8073,4.8101,4.8108,4.8168,4.8081,4.8076,4.8072,4.8068,4.8113,4.8117,4.8133,4.822,4.8222,4.8137,4.814,4.8142,4.8143,0,0,0,0,0,0,0,4.8004,4.8014,4.8115,4.8077,4.8075,4.8058,4.8062,4.8119,4.8113,4.8076,4.8072,4.8078,4.8111,4.8128,4.8133,4.8223,4.8137,4.8141,4.8144,4.8146,4.839,4.8393,0,0,0,0,0,0,4.8004,4.8011,4.8114,4.8117,4.8032,4.8063,4.8068,4.8096,4.8112,4.8111,4.8081,4.8075,4.8122,4.8128,4.8135,4.8247,4.8142,4.8146,4.8149,4.8386,4.839,4.8394,0,0,0,0,0,0,4.8001,4.8014,4.8112,4.8063,4.8074,4.8069,4.8101,4.8098,4.8115,4.8115,4.8114,4.81,4.8119,4.8128,4.8198,4.8247,4.8148,4.8153,4.8382,4.8387,4.8392,4.8474,0,0,0,0,0,0,4.7998,4.8013,4.8051,4.8064,4.8077,4.8176,4.8104,4.8101,4.8124,4.8117,4.8133,4.8132,4.8117,4.8191,4.8202,4.8252,4.8157,4.8377,4.8384,4.8391,4.8467,4.8481,4.8494,0,0,0,0,0,4.7993,4.8072,4.8053,4.8066,4.8124,4.8179,4.8186,4.8168,4.8128,4.8165,4.8165,4.8131,4.8241,4.8199,4.8211,4.8263,4.8374,4.8382,4.839,4.846,4.8478,4.8494,0,0,0,0,0,0,4.8064,4.8073,4.8052,4.8139,4.8159,4.8168,4.8214,4.8188,4.8219,4.8211,4.8187,4.8191,4.8265,4.8272,4.8224,4.8356,4.83,4.8311,4.835,4.8367,4.838,4.8376,4.8161,0,0,0,0,0,4.809,4.8135,4.814,4.8216,4.8227,4.8219,4.8242,4.8227,4.8246,4.8254,4.8259,4.8278,4.8316,4.8342,4.8378,4.8468,4.8469,4.851,4.8523,4.8534,4.8544,4.8589,4.8607,4.8421,4.8421,4.8421,0,0,4.8144,4.8155,4.8184,4.823,4.8244,4.8289,4.8226,4.8278,4.8311,4.8261,4.8327,4.8332,4.8351,4.8431,4.8467,4.8439,4.8595,4.8545,4.8554,4.8557,4.8599,4.8617,4.8633,4.8426,4.8425,4.8424,0,0,4.8265,4.8278,4.8341,4.8356,4.8378,4.8372,4.8387,4.8401,4.8401,4.8468,4.8431,4.847,4.8537,4.8552,4.8568,4.8694,4.8663,4.8706,4.8776,4.8821,4.8836,4.8849,4.8891,4.8907,4.8715,4.8716,4.8716,0,4.8328,4.8396,4.8377,4.843,4.8451,4.8409,4.8472,4.8487,4.8519,4.8533,4.8502,4.8584,4.8595,4.8676,4.8707,4.8722,4.8737,4.8703,4.8836,4.8848,4.886,4.89,4.8916,4.8721,4.872,4.8719,4.8719,0,4.8472,4.852,4.8568,4.86,4.8626,4.8684,4.8673,4.8701,4.8684,4.8681,4.8747,4.8759,4.8794,4.8813,4.8797,4.8892,4.8874,4.884,4.8782,4.8883,4.892,4.8935,4.8728,4.8726,4.8724,4.8723,0,0,4.8638,4.8659,4.8676,4.8689,4.871,4.8745,4.8801,4.8837,4.8861,4.8884,4.8928,4.8986,4.8954,4.8973,4.8957,4.8997,4.9093,4.8957,4.8957,4.898,4.9196,4.922,4.9238,4.9074,4.9076,4.9079,4.9194,0,4.8757,4.8853,4.8837,4.893,4.8972,4.8933,4.8981,4.8998,4.8997,4.9031,4.903,4.907,4.9026,4.9037,4.9074,4.9073,4.9135,4.9065,4.9113,4.9115,4.9107,4.9258,4.9284,4.9392,4.9208,4.9211,4.9213,0,4.8908,4.8936,4.9034,4.9045,4.9063,4.9106,4.9137,4.9171,4.9189,4.9185,4.9206,4.9183,4.9236,4.918,4.9252,4.9205,4.9223,4.9226,4.923,4.9232,4.9168,4.9262,4.9426,4.9442,4.9236,4.9234,4.9232,0,4.9016,4.9079,4.9145,4.9158,4.9174,4.9205,4.9213,4.9228,4.925,4.9276,4.929,4.9323,4.934,4.9365,4.9351,4.9312,4.9425,4.9368,4.9421,4.9422,4.9445,4.9444,4.9613,4.9462,4.9461,4.9461,4.9461,0,4.9149,4.9209,4.9194,4.9234,4.9299,4.928,4.9346,4.9349,4.9362,4.9401,4.937,4.9407,4.9387,4.9422,4.9411,4.9471,4.948,4.9477,4.9473,4.9479,4.9479,4.9489,4.948,4.9465,4.9464,4.9464,4.9463,0,4.928,4.9273,4.9341,4.9351,4.9355,4.9403,4.941,4.9447,4.9444,4.9493,4.9504,4.9498,4.9537,4.9526,4.9569,4.9562,4.9637,4.9625,4.9631,4.9627,4.9681,4.9675,4.986,4.9883,4.9719,4.9721,4.9722,0,4.9364,4.941,4.9424,4.9448,4.9459,4.9498,4.952,4.9503,4.9527,4.955,4.9584,4.9621,4.9649,4.9714,4.9713,4.9745,4.9732,4.9795,4.9737,4.974,4.973,4.9727,4.973,4.9806,4.9808,4.9809,4.981,0,4.9513,4.9507,4.9541,4.9573,4.96,4.9625,4.9646,4.9667,4.9651,4.968,4.972,4.9742,4.9786,4.9822,4.9852,4.9858,4.9831,4.9829,4.9843,4.9848,4.9848,4.9846,4.966,4.9824,4.9823,4.9822,4.9821,4.9821,4.9622,4.966,4.9676,4.9713,4.9728,4.9748,4.9783,4.9783,4.9817,4.9851,4.9839,4.9885,4.99,4.9936,4.9947,4.9982,4.9957,4.9978,4.9983,4.9987,4.9993,4.9845,4.9987,4.9987,4.9986,4.9986,4.9986,0,4.9767,4.9776,4.9811,4.9842,4.9871,4.9844,4.9866,4.9892,4.9933,4.995,4.9978,5.0024,5.0059,5.006,5.0092,5.012,5.0108,5.0128,5.0125,5.0127,5.0014,4.9998,5.0137,5.0137,5.0137,5.0137,5.0137,5.0137,4.9846,4.9908,4.9904,4.9971,4.9979,5.0024,5.0038,5.0056,5.0069,5.0121,5.015,5.0152,5.0162,5.0194,5.0225,5.0224,5.0236,5.0261,5.0256,5.015,5.0135,5.012,5.0105,5.0265,5.0265,5.0365,5.0366,5.0367]},{"header":{"parameterUnit":"m.s-1","parameterCategory":1,"la1":30.2991,"la2":30.254,"lo1":-89.0895,"lo2":-89.0444,"dy":0.0017,"dx":0.0017,"nx":28,"ny":28,"refTime":"2024-07-09T03:00:00:Z","depth":0,"parameterNumber":3,"parameterNumberName":"V-component_of_WINDS"},"data":[0,0,0,0,0,0,0,0,0,0,0,0,0,0,0,0,0,0,0,0,0,0,0,0,0,0,0,0,0,0,0,0,0,0,0,0,0,0,0,0,0,0,0,0,0,0,0,0,0,0,0,0,0,0,0,0,0,0,7.1757,7.1758,0,7.182,7.1821,7.1822,7.1783,7.1782,7.178,7.1778,7.1836,7.1839,7.1842,0,0,0,0,0,0,0,0,0,0,0,0,0,7.1596,7.1599,7.1757,7.1758,7.1759,7.182,7.1821,7.1822,7.1784,7.1782,7.1779,7.1777,7.1834,7.1838,7.1842,0,0,0,0,0,0,0,0,0,0,0,0,0,7.1663,7.16,7.1757,7.1747,7.1747,7.182,7.1821,7.1822,7.1784,7.1781,7.1779,7.1776,7.1833,7.1838,7.1843,7.1927,0,0,7.1857,7.1859,0,0,0,0,0,0,0,0,7.1659,7.1669,7.1748,7.1748,7.1748,7.1791,7.1785,7.1857,7.1785,7.177,7.1778,7.1775,7.1823,7.1828,7.1846,7.1929,7.1932,7.1858,7.1861,7.1863,7.1864,0,0,0,0,0,0,0,7.1655,7.1666,7.1782,7.1749,7.1749,7.1737,7.1744,7.1799,7.181,7.1771,7.1768,7.1777,7.1822,7.1841,7.1847,7.1932,7.1858,7.1862,7.1865,7.1867,7.2087,7.209,0,0,0,0,0,0,7.1652,7.1662,7.178,7.1784,7.1696,7.1742,7.175,7.178,7.181,7.1812,7.1779,7.1775,7.1834,7.1841,7.1849,7.1948,7.1863,7.1867,7.187,7.2084,7.2087,7.2091,0,0,0,0,0,0,7.1649,7.1663,7.1777,7.1723,7.1736,7.1748,7.1782,7.1783,7.1802,7.1816,7.1817,7.1797,7.1832,7.1842,7.1908,7.1949,7.1869,7.1874,7.208,7.2085,7.2089,7.2148,0,0,0,0,0,0,7.1644,7.1662,7.1696,7.1724,7.1739,7.1838,7.1785,7.1786,7.1811,7.1806,7.1833,7.1835,7.1831,7.1901,7.1912,7.1955,7.1878,7.2077,7.2082,7.2088,7.2142,7.2154,7.2164,0,0,0,0,0,7.1638,7.1708,7.1697,7.1712,7.1782,7.184,7.1849,7.1845,7.1815,7.1847,7.1856,7.1834,7.1943,7.1908,7.1921,7.1965,7.2074,7.2081,7.2087,7.2138,7.2152,7.2164,0,0,0,0,0,0,7.1682,7.1712,7.17,7.1782,7.1809,7.1834,7.1875,7.186,7.1895,7.1889,7.188,7.1887,7.1956,7.1967,7.1927,7.2047,7.2003,7.2013,7.2037,7.2051,7.2061,7.2057,7.1882,0,0,0,0,0,7.1701,7.1749,7.1771,7.184,7.1855,7.1863,7.1888,7.1883,7.191,7.1921,7.1934,7.196,7.1999,7.2026,7.2063,7.2144,7.2148,7.2181,7.2191,7.22,7.2208,7.225,7.2265,7.2112,7.2112,7.2112,0,0,7.1741,7.1763,7.1793,7.185,7.1871,7.1917,7.1873,7.1924,7.1958,7.1928,7.1991,7.2002,7.203,7.2103,7.2136,7.2115,7.2251,7.2209,7.2216,7.2219,7.2259,7.2273,7.2286,7.2117,7.2116,7.2115,0,0,7.1838,7.186,7.192,7.1942,7.1975,7.198,7.1995,7.2022,7.2029,7.2093,7.2071,7.211,7.2179,7.22,7.2219,7.2324,7.2304,7.2336,7.2391,7.2433,7.2445,7.2455,7.2491,7.2505,7.2344,7.2344,7.2344,0,7.1882,7.1954,7.1952,7.2006,7.2031,7.2008,7.2068,7.2088,7.2131,7.2147,7.2123,7.221,7.2226,7.2304,7.233,7.2346,7.2361,7.2332,7.2444,7.2454,7.2464,7.2498,7.2512,7.2348,7.2347,7.2347,7.2347,0,7.2007,7.2057,7.2101,7.2146,7.2175,7.2232,7.2236,7.2266,7.2258,7.2265,7.2329,7.2349,7.239,7.2408,7.24,7.2484,7.247,7.2445,7.2401,7.2482,7.2514,7.2527,7.2353,7.2352,7.2351,7.235,0,0,7.2131,7.2175,7.2191,7.2211,7.2246,7.2283,7.2337,7.238,7.2405,7.2435,7.2479,7.2538,7.2516,7.2538,7.2532,7.2568,7.2649,7.2539,7.2539,7.2558,7.2741,7.2759,7.2774,7.2636,7.2639,7.2641,7.2738,0,7.2229,7.2327,7.2327,7.2416,7.2462,7.2441,7.2488,7.2513,7.2521,7.2558,7.2565,7.2608,7.2575,7.2588,7.2623,7.2632,7.2685,7.2625,7.2675,7.2677,7.2668,7.2791,7.281,7.2902,7.2751,7.2753,7.2755,0,7.2357,7.2394,7.2488,7.2517,7.2535,7.2578,7.2617,7.2654,7.2681,7.2684,7.2709,7.2697,7.275,7.2706,7.2777,7.2736,7.2756,7.2763,7.2766,7.277,7.272,7.2797,7.2931,7.2944,7.2775,7.2773,7.2772,0,7.2437,7.251,7.2576,7.2594,7.2628,7.2659,7.2674,7.2699,7.2724,7.2757,7.2773,7.2811,7.2831,7.286,7.2858,7.2826,7.293,7.2885,7.2932,7.2932,7.2954,7.2952,7.3092,7.2969,7.2969,7.2968,7.2968,0,7.2546,7.2604,7.2613,7.2653,7.2717,7.2715,7.2778,7.279,7.2813,7.2853,7.2837,7.2874,7.287,7.2908,7.2906,7.2965,7.2974,7.2977,7.2975,7.2978,7.2977,7.299,7.2983,7.2972,7.2971,7.297,7.297,0,7.2646,7.2654,7.2725,7.2753,7.2761,7.2807,7.2829,7.2866,7.2873,7.2925,7.2936,7.2946,7.2989,7.2991,7.3039,7.3038,7.311,7.3102,7.3101,7.3099,7.3146,7.3141,7.3297,7.3317,7.3182,7.3184,7.3185,0,7.2714,7.2759,7.2793,7.282,7.2838,7.2882,7.2909,7.2908,7.2936,7.297,7.3003,7.3045,7.3079,7.3149,7.3158,7.3195,7.3187,7.324,7.3193,7.3193,7.3187,7.3184,7.3188,7.3248,7.325,7.3251,7.3252,0,7.2835,7.2837,7.2877,7.2919,7.2952,7.2984,7.3014,7.3037,7.3039,7.3071,7.3116,7.3143,7.3194,7.3235,7.3272,7.3284,7.3268,7.3267,7.328,7.3282,7.3279,7.328,7.3125,7.3263,7.3262,7.3261,7.3261,7.326,7.292,7.2959,7.2989,7.3034,7.3057,7.3086,7.3122,7.3134,7.3173,7.3216,7.3213,7.3263,7.3288,7.3335,7.3351,7.3389,7.337,7.3389,7.3393,7.3397,7.3402,7.3275,7.3395,7.3395,7.3395,7.3394,7.3394,0,7.3039,7.3057,7.3099,7.3143,7.3178,7.3163,7.3195,7.3224,7.327,7.3296,7.333,7.3381,7.3422,7.3435,7.3474,7.3501,7.3494,7.3511,7.3508,7.3511,7.3417,7.3402,7.3516,7.3515,7.3515,7.3515,7.3515,7.3515,7.3105,7.3169,7.3175,7.325,7.3267,7.3319,7.3338,7.3363,7.3384,7.3444,7.3478,7.3487,7.3507,7.3547,7.3583,7.3585,7.36,7.3619,7.3619,7.353,7.3518,7.3506,7.3492,7.3623,7.3623,7.371,7.3711,7.3711]}]]